CZ-6A DEB

Satellite information

Favourite Embed

Satellite Type and Status

DEBRISIN ORBIT

Key statistics

Satellite CZ-6A DEB at a glance.

Uptime

390

Days in orbit

Revolutions

≈ 14.5

Per day

Orbit

LEO

Low Earth Orbit

Inclination

89.1

Latest

Satellite identification and parameters

Extended collection of information and parameters for CZ-6A DEB.

Object identification

Identified? True

Debris? True

Object name: CZ-6A DEB

International designator: 2024-140HR

Object number (NORAD): 60838

Object ID (CCSDS): 60838

Country: PEOPLES REPUBLIC OF CHINA (PRC)

Current information (Y/N): Y

RCS size: SMALL

Orbital parameters

Period: 99.372 minutes

Inclination: 89.0893 deg

SMA: 7106.734 km

Apoapsis: 781.635 km

Periapsis: 675.562 km

RAAN: 309.5554 deg

Eccentricy: 0.00746287

Argument of periapsis: 156.1214 deg

Mean anomaly: 204.3485 deg

Mean motion: 14.49097794 rev/day

Mean motion (dot): 0.0000464 rev/day2

B* drag term: 0.0011747479 1/REarth

Two-line elements (TLE)

Creation date: Aug. 31, 2025, 2:26 a.m.

Reference frame: TEME

Reference center: EARTH

Epoch: Aug. 30, 2025, 3:20 p.m. UTC

TLE line 0: 0 CZ-6A DEB

TLE line 1: 1 60838U 24140HR 25242.63932058 .00004640 00000-0 11747-2 0 9993

TLE line 2: 2 60838 89.0893 309.5554 0074629 156.1214 204.3485 14.49097794 55328

Live tracking on map

Real-time ground track for satellite CZ-6A DEB.

In-orbit conjunctions

A list of the most updated potential collisions computed for object CZ-6A DEB.

Target Orbit TCA Probability of collision Miss distance Type
COSMOS 2251 DEB LEO 2025-08-15 00:16:35 0.0001247929 598.0 (m) DEBRIS
IRIDIUM 33 DEB LEO 2025-03-04 20:30:02 0.0001093919 333.0 (m) DEBRIS
CZ-6A DEB SSO 2025-01-30 17:34:12 0.0009000977 207.0 (m) DEBRIS
IRS 1D SSO 2024-12-29 09:22:13 0.0001389549 408.0 (m) PAYLOAD
FENGYUN 1C DEB SSO 2024-11-11 07:17:00 0.0006536027 224.0 (m) DEBRIS

Associated space launch

18 Low Earth Orbit communication satellites with Ku, Q and V band payloads for the G60 constellation operated by Shanghai Spacecom Satellite Technology (SSST) with funding backed by the Shanghai local government. Initial constellation will consist of 1296 satellites by 2027 with long term plans to expand it to 12000 satellites.

CZ-6A DEB was lifted into orbit during the mission ‘Long March 6A | G60 Polar Group 01’, on board a Long March 6A space rocket.

The launch took place on Aug. 6, 2024, 6:42 a.m. from Launch Complex 9A.

For more information about the launch, click the button.

Launch to space Long March 6A | G60 Polar Group 01
Long March 6A | G60 Polar Group 01

Agency: N/A

Status: Launch Successful

Launch date: Aug. 6, 2024, 6:42 a.m. UTC

Rocket: Long March 6A

Launch pad: Launch Complex 9A

Location: Taiyuan Satellite Launch Center, People's Republic of China

...

Latest news about this satellite

News about space launch
Brightness of first Chinese broadband constellation satellites alarms astronomers

The first satellites of a Chinese broadband constellation are significantly brighter than those of Western systems, posing a new challenge for astronomers.

News about space launch
Chinese rocket stage breaks up into cloud of more than 700 pieces of space debris

HELSINKI — A Chinese Long March 6A rocket’s upper stage has fragmented into a cloud of over 700 pieces of space debris, adding to concerns about long-term orbital safety. China […]

News about space launch
China's Thousand Sails Megaconstellation Kicks Off with Dangerous Debris Field

China's Thousand Sails Megaconstellation Kicks Off with Dangerous Debris Field


Newsletter sign-up

Weekly statistics, charts and insights to help you stay on top of the space industry.